Location: Vassar Physics Lab
(41.6843°N, 73.8954°W)
Time: 13:28:05
(UTC-04:00)

CZ-4B DEB - Visible Passes

Search period start: 19 April 2014 00:00
Search period end: 29 April 2014 00:00
Orbit: 843 x 866 km, 98.8° (Epoch: 17 April)

Date Brightness Start Highest point End Pass type
(mag) Time Alt. Az. Time Alt. Az. Time Alt. Az.
19 Apr 4.7 04:13:31 10° NNE 04:18:55 57° E 04:23:58 12° S visible
20 Apr 5.1 04:02:48 10° NNE 04:08:04 46° E 04:13:07 11° S visible
21 Apr 5.5 03:52:09 10° NNE 03:57:12 37° E 04:02:15 10° SSE visible
21 Apr 5.1 05:33:06 10° N 05:37:50 31° WNW 05:42:34 10° SW visible
22 Apr 5.8 03:41:33 10° NE 03:46:19 30° E 03:51:04 10° SSE visible
22 Apr 4.9 05:22:06 10° N 05:27:07 37° WNW 05:32:07 10° SW visible
23 Apr 6.1 03:31:02 10° NE 03:35:25 24° E 03:39:47 10° SSE visible
23 Apr 4.6 05:11:09 10° N 05:16:22 46° WNW 05:21:35 10° SW visible
24 Apr 6.4 03:20:38 10° NE 03:24:30 19° E 03:28:21 10° SE visible
24 Apr 4.4 05:00:14 10° N 05:05:36 57° WNW 05:10:58 10° SSW visible
25 Apr 6.7 03:10:25 10° NE 03:13:33 15° E 03:16:41 10° SE visible
25 Apr 4.2 04:49:21 10° N 04:54:49 71° WNW 05:00:18 10° SSW visible
26 Apr 6.8 03:00:36 10° ENE 03:02:36 12° E 03:04:35 10° ESE visible
26 Apr 4.2 04:38:30 10° NNE 04:44:01 87° WNW 04:49:33 10° SSW visible
27 Apr 4.4 04:27:41 10° NNE 04:33:12 77° ESE 04:38:43 10° S visible
28 Apr 4.6 04:16:55 10° NNE 04:22:22 62° ESE 04:27:50 10° S visible
